Location: New Town
(33.2710°N, 90.7534°W)
Time: 12:57:19
(UTC+00:00)

Explorer 11/Cluster Stage 4 - Pass Details

Date: 16 May 2021
Orbit: 467 x 1257 km, 28.8° (Epoch: 14 June)

Event Time Altitude Azimuth Distance (km) Brightness Sun altitude
Rises 06:48:59 0° 271° (W) 4,147 - -36.2°
Reaches altitude 10° 06:52:38 10° 259° (WSW) 3,109 - -36.0°
Maximum altitude 06:58:28 23° 210° (SSW) 2,107 - -35.7°
Drops below altitude 10° 07:03:39 10° 160° (SSE) 2,728 - -35.4°
Sets 07:06:38 0° 146° (SE) 3,533 - -35.2°
